Hourly Weather Roundup
Issued by NWS Central Illinois

Home | Current Version | Previous Version | Text Only | Print | Product List | Glossary On
Versions: 1 2 3 4 5 6 7 8 9 10 11 12 13 14 15 16 17 18 19 20 21 22 23 24 25 26 27 28 29 30 31 32 33 34 35 36 37 38 39 40 41 42 43 44 45 46 47 48 49 50
000
NZUS43 KILX 051810
HWRILX

AREA WEATHER ROUNDUP
NATIONAL WEATHER SERVICE, LINCOLN IL
1200 PM CST THU MAR 05 2015


CITY           SKY/WX    TMP DP  RH WIND       PRES   REMARKS
BLOOMINGTON    FAIR      14   2  59 W13       30.52R WCI   0
6HR MIN TEMP:   7; 6HR MAX TEMP:  14;

CHAMPAIGN      FAIR      14   5  67 NW16      30.50R WCI  -2
6HR MIN TEMP:   6; 6HR MAX TEMP:  14;

DECATUR        FAIR      16   0  49 NW22G29   30.53R WCI  -2
6HR MIN TEMP:  10; 6HR MAX TEMP:  16;

EFFINGHAM      FAIR      18  -1  43 W20       30.55R WCI   2
FLORA          FAIR      20   5  52 NW15G22   30.54R WCI   6
6HR MIN TEMP:  14; 6HR MAX TEMP:  20;

GALESBURG      FAIR      11   0  61 W14       30.56S WCI  -5
JACKSONVILLE   FAIR      17   4  56 W13       30.57F WCI   4
6HR MIN TEMP:   7; 6HR MAX TEMP:  17;

LACON          FAIR      12   1  61 NW9       30.55S WCI   0
6HR MIN TEMP:   2; 6HR MAX TEMP:  12;

LAWRENCEVILLE  FAIR      21   7  54 NW14      30.51R WCI   8
6HR MIN TEMP:  17; 6HR MAX TEMP:  22;

LITCHFIELD     FAIR      15   1  52 N12       30.56R WCI   2
$$


CITY           SKY/WX    TMP DP  RH WIND       PRES   REMARKS
LINCOLN        FAIR      17   3  52 NW10      30.58S WCI   5
6HR MIN TEMP:  10; 6HR MAX TEMP:  17;

MACOMB         FAIR      11   2  66 NW12      30.60S WCI  -3
MATTOON        FAIR      16   5  62 NW15      30.50R WCI   1
6HR MIN TEMP:   9; 6HR MAX TEMP:  16;

MT CARMEL AP   FAIR      23   5  46 N14       30.50S WCI  11
OLNEY-NOBLE AP FAIR      21   5  49 NW15      30.53R WCI   8
PARIS          FAIR      17   8  67 NW12      30.50S WCI   4
6HR MIN TEMP:   9; 6HR MAX TEMP:  17;

PEORIA         FAIR      13  -2  51 NW8       30.56S WCI   2
6HR MIN TEMP:   6; 6HR MAX TEMP:  13;

PONTIAC        FAIR      14   4  64 NW9       30.53S WCI   2
RANTOUL        FAIR      16   6  64 NW13      30.50R WCI   2
6HR MIN TEMP:   9; 6HR MAX TEMP:  16;

ROBINSON       FAIR      19   6  55 NW13      30.52R WCI   7
6HR MIN TEMP:  14; 6HR MAX TEMP:  19;

SPRINGFIELD    FAIR      17   2  51 NW16      30.56S WCI   2
6HR MIN TEMP:   9; 6HR MAX TEMP:  17;

TAYLORVILLE    FAIR      18   5  57 N15       30.55S WCI   3
$$

...REGIONAL REPORTS...


CITY           SKY/WX    TMP DP  RH WIND       PRES   REMARKS
CHICAGO O`HARE FAIR      15  -3  44 W13       30.48R WCI   1
KANKAKEE       FAIR      17   2  52 W13G18    30.50R WCI   3
MOLINE         FAIR      11  -1  58 W13       30.57R WCI  -4
MOUNT VERNON   FAIR      21   1  42 N12G18    30.54S WCI   9
PITTSFIELD     FAIR      17   4  58 NW9       30.58F WCI   5
QUINCY         FAIR      14   2  58 NW13      30.58S WCI   0
ROCKFORD       FAIR      11  -5  48 N8        30.53R WCI  -1
$$


CITY           SKY/WX    TMP DP  RH WIND       PRES   REMARKS
BURLINGTON     FAIR      11  -3  53 NW10      30.58S WCI  -3
CEDAR RAPIDS   FAIR       6  -4  63 NW12      30.56S WCI  -9
DES MOINES     FAIR      14  -4  44 W6        30.57S WCI   5
KIRKSVILLE     FAIR      20   1  43 NW10      30.56S WCI   9
OTTUMWA        FAIR      13  -2  51 NW12G20   30.57F WCI  -1
ST LOUIS       PTSUNNY   22   8  55 NW13      30.57R WCI  10
$$


CITY           SKY/WX    TMP DP  RH WIND       PRES   REMARKS
TERRE HAUTE    FAIR      19   6  57 NW9       30.48R WCI   8
EVANSVILLE     FAIR      23   7  50 NW14      30.50R WCI  11
INDIANAPOLIS   FAIR      22   7  52 NW8       30.41R WCI  12
LAFAYETTE      PTSUNNY   18   6  59 N9        30.47R WCI   7
MADISON        FAIR      11  -9  40 NW8       30.49S WCI  -1
MILWAUKEE      FAIR      12  -9  38 NW9       30.48S WCI   0
$$




USA.gov is the U.S. government's official web portal to all federal, state and local government web resources and services.